Overview Statistics Trail Chart Weather Telemetry Raw packets
 

This is the latest recevied weather packets stored in our database for station/object W8LMG. If no packets are shown the sender has not sent any weather packets the latest 10 day(s).

<< 109 110 111 112 113 114 >>
Time Temp. Humidity Pressure Rain* Wind** Luminosity Snow
1787778892 25° C 76% 1018.4 hPa 0 mm - 101 W/m² -
1787778584 25.56° C 75% 1018.8 hPa 0 mm - 158 W/m² -
1787778280 25° C 75% 1018.8 hPa 0 mm - 140 W/m² -
1787777980 25° C 77% 1018.7 hPa 0 mm - 146 W/m² -
1787777675 25° C 76% 1018.6 hPa 0 mm - 126 W/m² -
1787777371 25.56° C 73% 1018.6 hPa 0 mm - 138 W/m² -
1787777071 25.56° C 74% 1018.7 hPa 0 mm - 224 W/m² -
1787776770 26.67° C 68% 1018.8 hPa 0 mm - 192 W/m² -
1787776469 26.11° C 64% 1018.7 hPa 0 mm - 232 W/m² -
1787776166 26.11° C 62% 1018.8 hPa 0 mm - 196 W/m² -
1787775861 26.11° C 71% 1018.8 hPa 0 mm - 313 W/m² -
1787775556 26.67° C 69% 1018.8 hPa 0 mm - 299 W/m² -
1787775255 26.67° C 63% 1019 hPa 0 mm - 285 W/m² -
1787774954 27.22° C 60% 1019 hPa 0 mm - 365 W/m² -
1787774654 26.67° C 61% 1018.9 hPa 0 mm - 398 W/m² -
1787774352 27.22° C 61% 1019 hPa 0 mm - 471 W/m² -
1787774048 27.22° C 61% 1019.2 hPa 0 mm - 476 W/m² -
1787773746 27.78° C 62% 1019.1 hPa 0 mm - 487 W/m² -
1787773441 27.22° C 64% 1018.9 hPa 0 mm - 499 W/m² -
1787773136 26.67° C 64% 1019.3 hPa 0 mm - 507 W/m² -
1787772833 27.78° C 66% 1019.1 hPa 0 mm - 549 W/m² -
1787772532 26.67° C 65% 1019.1 hPa 0 mm - 523 W/m² -
1787772230 26.11° C 63% 1019.2 hPa 0 mm - 494 W/m² -
1787771929 26.11° C 65% 1019.1 hPa 0 mm - 476 W/m² -
1787771624 26.11° C 64% 1019.3 hPa 0 mm - 561 W/m² -

* Rain latest hour (hover to see other rain measurements)
** Current wind speed in m/s (hover to see current wind gust speed)